| time (UTC) | temp F | wind direction | speed knots | gust knots | rain 1hr in | rain 24hr in | rain mn in | humidity % | barometer mb |
| 20260506134749 | 100 | 180 | 0.0 | 16.5 | 0.00 | 0.00 | 0.00 | 18 | 1005.9 |
| 20260506133242 | 99 | 90 | 0.9 | 13.0 | 0.00 | 0.00 | 0.00 | 18 | 1006.0 |
| 20260506132237 | 102 | 225 | 0.0 | 12.2 | 0.00 | 0.00 | 0.00 | 18 | 1006.2 |
| 20260506131734 | 108 | 315 | 0.0 | 5.2 | 0.00 | 0.00 | 0.00 | 18 | 1006.3 |
| 20260506130730 | 104 | 180 | 0.9 | 8.7 | 0.00 | 0.00 | 0.00 | 19 | 1006.2 |
| 20260506130227 | 98 | 45 | 0.0 | 13.9 | 0.00 | 0.00 | 0.00 | 20 | 1006.3 |
| 20260506125725 | 100 | 270 | 7.8 | 10.4 | 0.00 | 0.00 | 0.00 | 20 | 1006.4 |
| 20260506125222 | 103 | 225 | 0.0 | 12.2 | 0.00 | 0.00 | 0.00 | 20 | 1006.5 |
| 20260506124218 | 95 | 315 | 0.0 | 14.8 | 0.00 | 0.00 | 0.00 | 21 | 1006.5 |
| 20260506123715 | 96 | 315 | 0.0 | 4.3 | 0.00 | 0.00 | 0.00 | 21 | 1006.6 |
| 20260506123213 | 95 | 225 | 13.9 | 14.8 | 0.00 | 0.00 | 0.00 | 20 | 1006.6 |
| 20260506122710 | 97 | 315 | 0.0 | 10.4 | 0.00 | 0.00 | 0.00 | 20 | 1006.7 |
| 20260506122208 | 102 | 0.9 | 24.3 | 0.00 | 0.00 | 0.00 | 20 | 1006.8 | |
| 20260506121203 | 99 | 45 | 0.9 | 12.2 | 0.00 | 0.00 | 0.00 | 21 | 1006.8 |
| 20260506120701 | 98 | 315 | 0.0 | 6.1 | 0.00 | 0.00 | 0.00 | 21 | 1006.8 |
| 20260506120158 | 98 | 315 | 0.9 | 14.8 | 0.00 | 0.00 | 0.00 | 22 | 1006.9 |
| 20260506115656 | 99 | 45 | 0.9 | 7.0 | 0.00 | 0.00 | 0.00 | 21 | 1007.1 |
| 20260506115153 | 102 | 45 | 0.9 | 12.2 | 0.00 | 0.00 | 0.00 | 21 | 1007.2 |
| 20260506114651 | 102 | 225 | 0.0 | 0.9 | 0.00 | 0.00 | 0.00 | 22 | 1007.2 |
| 20260506114149 | 101 | 45 | 0.9 | 13.0 | 0.00 | 0.00 | 0.00 | 23 | 1007.3 |
| 20260506113646 | 99 | 315 | 0.0 | 1.7 | 0.00 | 0.00 | 0.00 | 24 | 1007.4 |
| 20260506113144 | 95 | 225 | 0.9 | 15.6 | 0.00 | 0.00 | 0.00 | 22 | 1007.4 |
| 20260506112641 | 98 | 180 | 0.0 | 14.8 | 0.00 | 0.00 | 0.00 | 24 | 1007.6 |
| 20260506112139 | 96 | 270 | 0.9 | 12.2 | 0.00 | 0.00 | 0.00 | 24 | 1007.6 |
| 20260506111637 | 99 | 315 | 0.9 | 6.1 | 0.00 | 0.00 | 0.00 | 23 | 1007.7 |
| 20260506111134 | 97 | 180 | 0.0 | 15.6 | 0.00 | 0.00 | 0.00 | 24 | 1007.7 |
| 20260506110632 | 97 | 225 | 0.9 | 14.8 | 0.00 | 0.00 | 0.00 | 24 | 1007.8 |
| 20260506110129 | 97 | 45 | 0.0 | 13.0 | 0.00 | 0.00 | 0.00 | 25 | 1008.0 |
| 20260506105125 | 95 | 225 | 0.0 | 15.6 | 0.00 | 0.00 | 0.00 | 26 | 1008.1 |
| 20260506104622 | 97 | 225 | 0.0 | 13.9 | 0.00 | 0.00 | 0.00 | 26 | 1008.2 |
| 20260506104120 | 96 | 315 | 0.0 | 13.9 | 0.00 | 0.00 | 0.00 | 26 | 1008.2 |
| 20260506103617 | 96 | 45 | 0.0 | 3.5 | 0.00 | 0.00 | 0.00 | 26 | 1008.3 |
| 20260506103115 | 95 | 45 | 0.0 | 13.9 | 0.00 | 0.00 | 0.00 | 26 | 1008.5 |
| 20260506102612 | 97 | 180 | 0.9 | 14.8 | 0.00 | 0.00 | 0.00 | 26 | 1008.5 |
| 20260506100603 | 95 | 0 | 0.0 | 10.4 | 0.00 | 0.00 | 0.00 | 28 | 1008.9 |
| 20260506100100 | 92 | 225 | 0.0 | 14.8 | 0.00 | 0.00 | 0.00 | 29 | 1008.9 |
| 20260506095558 | 89 | 0 | 0.0 | 11.3 | 0.00 | 0.00 | 0.00 | 30 | 1008.8 |
| 20260506095056 | 93 | 45 | 0.0 | 5.2 | 0.00 | 0.00 | 0.00 | 29 | 1008.9 |
| 20260506094051 | 93 | 45 | 0.0 | 1.7 | 0.00 | 0.00 | 0.00 | 30 | 1009.1 |
| 20260506093548 | 89 | 225 | 0.0 | 7.0 | 0.00 | 0.00 | 0.00 | 30 | 1009.1 |
| 20260506093046 | 94 | 270 | 0.0 | 3.5 | 0.00 | 0.00 | 0.00 | 29 | 1009.2 |
| 20260506092041 | 94 | 225 | 0.0 | 1.7 | 0.00 | 0.00 | 0.00 | 32 | 1009.4 |
| 20260506091539 | 94 | 180 | 0.0 | 0.9 | 0.00 | 0.00 | 0.00 | 32 | 1009.4 |
| 20260506091036 | 92 | 225 | 0.9 | 6.1 | 0.00 | 0.00 | 0.00 | 32 | 1009.5 |
| 20260506090534 | 92 | 225 | 0.0 | 0.9 | 0.00 | 0.00 | 0.00 | 34 | 1009.6 |
| 20260506090031 | 92 | 135 | 0.0 | 10.4 | 0.00 | 0.00 | 0.00 | 34 | 1009.6 |
| 20260506085529 | 92 | 180 | 0.9 | 11.3 | 0.00 | 0.00 | 0.00 | 35 | 1009.8 |
| 20260506085027 | 90 | 270 | 0.0 | 15.6 | 0.00 | 0.00 | 0.00 | 37 | 1009.7 |
| 20260506084525 | 87 | 180 | 0.0 | 15.6 | 0.00 | 0.00 | 0.00 | 38 | 1009.6 |
| 20260506084022 | 84 | 0.9 | 4.3 | 0.00 | 0.00 | 0.00 | 38 | 1009.7 | |
| 20260506083519 | 82 | 135 | 1.7 | 14.8 | 0.00 | 0.00 | 0.00 | 38 | 1009.6 |
| 20260506083017 | 82 | 0.0 | 19.1 | 0.00 | 0.00 | 0.00 | 38 | 1009.6 | |
| 20260506082515 | 82 | 135 | 0.9 | 8.7 | 0.00 | 0.00 | 0.00 | 39 | 1009.6 |
| 20260506082012 | 84 | 45 | 1.7 | 18.2 | 0.00 | 0.00 | 0.00 | 40 | 1009.8 |
| 20260506081510 | 82 | 45 | 0.0 | 14.8 | 0.00 | 0.00 | 0.00 | 41 | 1009.8 |
| 20260506081007 | 83 | 315 | 0.0 | 19.1 | 0.00 | 0.00 | 0.00 | 41 | 1009.9 |
| 20260506080505 | 82 | 135 | 0.0 | 20.0 | 0.00 | 0.00 | 0.00 | 41 | 1009.9 |
| 20260506072948 | 75 | 0.9 | 12.2 | 0.00 | 0.00 | 0.00 | 44 | 1010.3 | |
| 20260506072445 | 75 | 45 | 0.0 | 13.0 | 0.00 | 0.00 | 0.00 | 44 | 1010.3 |
| 20260506071943 | 75 | 45 | 0.0 | 9.6 | 0.00 | 0.00 | 0.00 | 45 | 1010.4 |
| 20260506071441 | 75 | 45 | 0.0 | 3.5 | 0.00 | 0.00 | 0.00 | 45 | 1010.4 |
| 20260506070938 | 74 | 45 | 0.0 | 19.1 | 0.00 | 0.00 | 0.00 | 45 | 1010.4 |
| 20260506070436 | 74 | 0 | 0.0 | 20.0 | 0.00 | 0.00 | 0.00 | 45 | 1010.5 |
| 20260506062416 | 75 | 270 | 0.0 | 17.4 | 0.00 | 0.00 | 0.00 | 47 | 1011.0 |
| 20260506061914 | 75 | 180 | 0.0 | 16.5 | 0.00 | 0.00 | 0.00 | 49 | 1010.9 |
| 20260506061412 | 73 | 180 | 0.0 | 1.7 | 0.00 | 0.00 | 0.00 | 49 | 1010.9 |
| 20260506060909 | 73 | 180 | 0.0 | 0.9 | 0.00 | 0.00 | 0.00 | 49 | 1010.9 |
| 20260506060407 | 74 | 180 | 0.0 | 0.0 | 0.00 | 0.00 | 0.00 | 49 | 1010.9 |
| 20260506051343 | 66 | 315 | 0.0 | 6.1 | 0.00 | 0.00 | 0.00 | 53 | 1011.2 |
| 20260506050840 | 65 | 225 | 0.0 | 1.7 | 0.00 | 0.00 | 0.00 | 53 | 1011.1 |
| 20260506050338 | 65 | 225 | 0.0 | 20.0 | 0.00 | 0.00 | 0.00 | 52 | 1011.1 |
| 20260506044831 | 66 | 180 | 0.0 | 0.9 | 0.00 | 0.00 | 0.00 | 52 | 1011.0 |
| 20260506044328 | 65 | 180 | 0.0 | 18.2 | 0.00 | 0.00 | 0.00 | 52 | 1011.0 |
| 20260506043826 | 65 | 180 | 0.0 | 20.9 | 0.00 | 0.00 | 0.00 | 53 | 1010.9 |
| 20260506042319 | 64 | 180 | 0.9 | 19.1 | 0.00 | 0.00 | 0.00 | 53 | 1010.7 |
| 20260506041816 | 64 | 225 | 0.9 | 1.7 | 0.00 | 0.00 | 0.00 | 52 | 1010.6 |
| 20260506041314 | 64 | 180 | 0.9 | 12.2 | 0.00 | 0.00 | 0.00 | 52 | 1010.6 |
| 20260506040811 | 64 | 225 | 0.0 | 19.1 | 0.00 | 0.00 | 0.00 | 52 | 1010.7 |
| 20260506040309 | 64 | 180 | 0.9 | 12.2 | 0.00 | 0.00 | 0.00 | 52 | 1010.6 |
| 20260506035807 | 64 | 225 | 0.9 | 1.7 | 0.00 | 0.00 | 0.00 | 53 | 1010.5 |
| 20260506035306 | 64 | 180 | 0.0 | 20.0 | 0.00 | 0.00 | 0.00 | 52 | 1010.5 |
| 20260506034802 | 64 | 180 | 0.0 | 6.1 | 0.00 | 0.00 | 0.00 | 52 | 1010.4 |
| 20260506034259 | 64 | 180 | 0.0 | 20.9 | 0.00 | 0.00 | 0.00 | 52 | 1010.4 |
| 20260506033757 | 64 | 180 | 0.9 | 21.7 | 0.00 | 0.00 | 0.00 | 52 | 1010.4 |
| 20260506033254 | 64 | 225 | 1.7 | 22.6 | 0.00 | 0.00 | 0.00 | 52 | 1010.3 |
| 20260506032752 | 64 | 225 | 0.9 | 20.9 | 0.00 | 0.00 | 0.00 | 52 | 1010.3 |
| 20260506032250 | 64 | 180 | 1.7 | 22.6 | 0.00 | 0.00 | 0.00 | 52 | 1010.3 |
| 20260506031245 | 65 | 225 | 0.0 | 22.6 | 0.00 | 0.00 | 0.00 | 52 | 1010.3 |
| 20260506030742 | 65 | 180 | 0.9 | 22.6 | 0.00 | 0.00 | 0.00 | 52 | 1010.4 |
| 20260506030240 | 65 | 135 | 0.9 | 17.4 | 0.00 | 0.00 | 0.00 | 51 | 1010.3 |
| 20260506025738 | 65 | 225 | 2.6 | 18.2 | 0.00 | 0.00 | 0.00 | 51 | 1010.3 |
| 20260506025235 | 65 | 180 | 3.5 | 22.6 | 0.00 | 0.00 | 0.00 | 51 | 1010.4 |
| 20260506024733 | 65 | 270 | 0.9 | 23.5 | 0.00 | 0.00 | 0.00 | 51 | 1010.4 |
| 20260506024230 | 65 | 180 | 2.6 | 20.0 | 0.00 | 0.00 | 0.00 | 51 | 1010.5 |
| 20260506023728 | 65 | 225 | 16.5 | 21.7 | 0.00 | 0.00 | 0.00 | 51 | 1010.5 |
| 20260506023226 | 65 | 180 | 1.7 | 20.9 | 0.00 | 0.00 | 0.00 | 51 | 1010.5 |
| 20260506022723 | 65 | 225 | 1.7 | 17.4 | 0.00 | 0.00 | 0.00 | 51 | 1010.5 |
| 20260506022221 | 65 | 180 | 0.9 | 17.4 | 0.00 | 0.00 | 0.00 | 50 | 1010.5 |
| 20260506021718 | 65 | 180 | 0.9 | 20.9 | 0.00 | 0.00 | 0.00 | 50 | 1010.5 |
| 20260506021216 | 65 | 270 | 0.9 | 4.3 | 0.00 | 0.00 | 0.00 | 50 | 1010.5 |
| 20260506020713 | 65 | 180 | 2.6 | 20.9 | 0.00 | 0.00 | 0.00 | 50 | 1010.4 |
| 20260506020211 | 66 | 180 | 0.9 | 20.9 | 0.00 | 0.00 | 0.00 | 50 | 1010.4 |
| 20260506015709 | 66 | 225 | 0.9 | 17.4 | 0.00 | 0.00 | 0.00 | 50 | 1010.4 |
| 20260506015206 | 66 | 225 | 0.9 | 15.6 | 0.00 | 0.00 | 0.00 | 50 | 1010.3 |
| 20260506014704 | 66 | 225 | 0.9 | 21.7 | 0.00 | 0.00 | 0.00 | 49 | 1010.3 |
| 20260506014201 | 66 | 225 | 1.7 | 19.1 | 0.00 | 0.00 | 0.00 | 49 | 1010.3 |
| 20260506013659 | 66 | 225 | 0.9 | 20.9 | 0.00 | 0.00 | 0.00 | 49 | 1010.2 |
| 20260506013157 | 66 | 180 | 0.0 | 21.7 | 0.00 | 0.00 | 0.00 | 49 | 1010.2 |
| 20260506012654 | 66 | 180 | 1.7 | 22.6 | 0.00 | 0.00 | 0.00 | 49 | 1010.2 |
| 20260506012152 | 66 | 180 | 2.6 | 24.3 | 0.00 | 0.00 | 0.00 | 49 | 1010.0 |
| 20260506011147 | 66 | 225 | 1.7 | 20.9 | 0.00 | 0.00 | 0.00 | 48 | 1010.1 |
| 20260506010645 | 66 | 225 | 1.7 | 21.7 | 0.00 | 0.00 | 0.00 | 48 | 1009.9 |
| 20260506010142 | 67 | 180 | 2.6 | 20.9 | 0.00 | 0.00 | 0.00 | 48 | 1009.9 |
| 20260506005640 | 67 | 225 | 1.7 | 21.7 | 0.00 | 0.00 | 0.00 | 47 | 1009.9 |
| 20260506005137 | 67 | 180 | 0.0 | 28.7 | 0.00 | 0.00 | 0.00 | 47 | 1009.8 |
| 20260506004635 | 67 | 225 | 21.7 | 21.7 | 0.00 | 0.00 | 0.00 | 47 | 1009.7 |
| 20260506004133 | 67 | 180 | 4.3 | 22.6 | 0.00 | 0.00 | 0.00 | 47 | 1009.7 |
| 20260506003630 | 67 | 225 | 0.9 | 20.0 | 0.00 | 0.00 | 0.00 | 46 | 1009.7 |
| 20260506003128 | 67 | 180 | 13.9 | 22.6 | 0.00 | 0.00 | 0.00 | 46 | 1009.7 |
| 20260506002625 | 67 | 225 | 2.6 | 21.7 | 0.00 | 0.00 | 0.00 | 45 | 1009.7 |
| 20260506002123 | 67 | 180 | 1.7 | 21.7 | 0.00 | 0.00 | 0.00 | 45 | 1009.6 |
| 20260506001620 | 68 | 225 | 0.9 | 1.7 | 0.00 | 0.00 | 0.00 | 45 | 1009.6 |
| 20260506001118 | 68 | 270 | 0.0 | 18.2 | 0.00 | 0.00 | 0.00 | 45 | 1009.6 |
| 20260506000616 | 68 | 180 | 32.2 | 33.0 | 0.00 | 0.00 | 0.00 | 44 | 1009.4 |
| 20260506000113 | 68 | 180 | 0.9 | 20.9 | 0.00 | 0.00 | 0.00 | 44 | 1009.3 |
| 20260505235611 | 68 | 180 | 1.7 | 21.7 | 0.00 | 0.00 | 0.00 | 44 | 1009.2 |
| 20260505235108 | 68 | 180 | 0.9 | 18.2 | 0.00 | 0.00 | 0.00 | 44 | 1009.1 |
| 20260505234606 | 68 | 225 | 2.6 | 20.9 | 0.00 | 0.00 | 0.00 | 43 | 1009.0 |
| 20260505234104 | 69 | 180 | 0.0 | 21.7 | 0.00 | 0.00 | 0.00 | 43 | 1009.0 |
| 20260505233601 | 69 | 135 | 0.0 | 21.7 | 0.00 | 0.00 | 0.00 | 43 | 1008.9 |
| 20260505233059 | 69 | 225 | 3.5 | 21.7 | 0.00 | 0.00 | 0.00 | 43 | 1008.8 |
| 20260505232556 | 69 | 180 | 0.9 | 18.2 | 0.00 | 0.00 | 0.00 | 42 | 1008.8 |
| 20260505232054 | 69 | 180 | 0.0 | 21.7 | 0.00 | 0.00 | 0.00 | 42 | 1008.8 |
| 20260505231551 | 69 | 225 | 1.7 | 13.0 | 0.00 | 0.00 | 0.00 | 42 | 1008.7 |
| 20260505231049 | 69 | 180 | 0.0 | 1.7 | 0.00 | 0.00 | 0.00 | 42 | 1008.7 |
| 20260505230547 | 69 | 180 | 0.9 | 12.2 | 0.00 | 0.00 | 0.00 | 42 | 1008.7 |
| 20260505230044 | 69 | 270 | 0.0 | 20.9 | 0.00 | 0.00 | 0.00 | 41 | 1008.6 |
| 20260505225542 | 69 | 225 | 0.9 | 20.9 | 0.00 | 0.00 | 0.00 | 41 | 1008.4 |
| 20260505225039 | 69 | 180 | 0.0 | 12.2 | 0.00 | 0.00 | 0.00 | 41 | 1008.4 |
| 20260505224537 | 69 | 225 | 0.9 | 21.7 | 0.00 | 0.00 | 0.00 | 41 | 1008.2 |
| 20260505224035 | 68 | 180 | 0.0 | 20.0 | 0.00 | 0.00 | 0.00 | 41 | 1008.2 |
| 20260505223532 | 68 | 180 | 0.0 | 1.7 | 0.00 | 0.00 | 0.00 | 41 | 1008.0 |
| 20260505223030 | 68 | 225 | 0.0 | 0.9 | 0.00 | 0.00 | 0.00 | 40 | 1007.9 |
| 20260505222527 | 68 | 225 | 0.0 | 0.9 | 0.00 | 0.00 | 0.00 | 40 | 1007.8 |
| 20260505222025 | 68 | 180 | 0.0 | 0.9 | 0.00 | 0.00 | 0.00 | 40 | 1007.8 |
| 20260505221523 | 69 | 180 | 0.0 | 2.6 | 0.00 | 0.00 | 0.00 | 40 | 1007.8 |
| 20260505221020 | 69 | 180 | 0.0 | 19.1 | 0.00 | 0.00 | 0.00 | 40 | 1007.8 |
| 20260505220518 | 69 | 180 | 0.0 | 20.9 | 0.00 | 0.00 | 0.00 | 39 | 1007.7 |
| 20260505220015 | 69 | 180 | 0.0 | 21.7 | 0.00 | 0.00 | 0.00 | 39 | 1007.6 |
| 20260505215513 | 70 | 180 | 0.0 | 19.1 | 0.00 | 0.00 | 0.00 | 39 | 1007.6 |
| 20260505215010 | 70 | 180 | 0.9 | 20.9 | 0.00 | 0.00 | 0.00 | 39 | 1007.6 |
| 20260505214508 | 70 | 180 | 0.9 | 32.2 | 0.00 | 0.00 | 0.00 | 39 | 1007.7 |
| 20260505214006 | 70 | 180 | 1.7 | 17.4 | 0.00 | 0.00 | 0.00 | 38 | 1007.7 |
| 20260505213503 | 70 | 180 | 1.7 | 37.4 | 0.00 | 0.00 | 0.00 | 38 | 1007.6 |
| 20260505213001 | 70 | 180 | 1.7 | 4.3 | 0.00 | 0.00 | 0.00 | 38 | 1007.5 |
| 20260505212458 | 70 | 225 | 0.9 | 20.9 | 0.00 | 0.00 | 0.00 | 38 | 1007.4 |
| 20260505211956 | 71 | 180 | 0.0 | 22.6 | 0.00 | 0.00 | 0.00 | 37 | 1007.4 |
| 20260505211454 | 71 | 225 | 2.6 | 20.9 | 0.00 | 0.00 | 0.00 | 37 | 1007.3 |
| 20260505210951 | 71 | 180 | 0.9 | 24.3 | 0.00 | 0.00 | 0.00 | 37 | 1007.1 |
| 20260505210449 | 71 | 270 | 0.9 | 21.7 | 0.00 | 0.00 | 0.00 | 37 | 1007.2 |
| 20260505205946 | 71 | 225 | 0.0 | 22.6 | 0.00 | 0.00 | 0.00 | 36 | 1007.1 |
| 20260505205444 | 71 | 180 | 0.0 | 21.7 | 0.00 | 0.00 | 0.00 | 36 | 1007.0 |
| 20260505204942 | 71 | 180 | 0.9 | 22.6 | 0.00 | 0.00 | 0.00 | 36 | 1007.0 |
| 20260505204439 | 70 | 225 | 1.7 | 16.5 | 0.00 | 0.00 | 0.00 | 36 | 1007.0 |
| 20260505203434 | 69 | 180 | 0.0 | 20.9 | 0.00 | 0.00 | 0.00 | 36 | 1006.8 |
| 20260505202932 | 68 | 180 | 0.9 | 20.0 | 0.00 | 0.00 | 0.00 | 36 | 1006.8 |
| 20260505202429 | 67 | 180 | 0.0 | 0.9 | 0.00 | 0.00 | 0.00 | 35 | 1006.7 |
| 20260505201927 | 67 | 180 | 0.0 | 16.5 | 0.00 | 0.00 | 0.00 | 35 | 1006.5 |
| 20260505201425 | 67 | 180 | 0.0 | 0.0 | 0.00 | 0.00 | 0.00 | 34 | 1006.4 |
| 20260505200922 | 68 | 180 | 0.0 | 0.9 | 0.00 | 0.00 | 0.00 | 34 | 1006.3 |
| 20260505200420 | 68 | 180 | 0.0 | 0.0 | 0.00 | 0.00 | 0.00 | 34 | 1006.1 |
| 20260505195917 | 68 | 180 | 0.0 | 13.9 | 0.00 | 0.00 | 0.00 | 34 | 1006.0 |
| 20260505195415 | 68 | 225 | 0.0 | 0.0 | 0.00 | 0.00 | 0.00 | 33 | 1005.9 |
| 20260505194913 | 68 | 225 | 0.0 | 0.0 | 0.00 | 0.00 | 0.00 | 33 | 1005.8 |
| 20260505194410 | 69 | 225 | 0.0 | 0.9 | 0.00 | 0.00 | 0.00 | 33 | 1005.7 |
| 20260505193908 | 69 | 225 | 0.0 | 0.9 | 0.00 | 0.00 | 0.00 | 32 | 1005.7 |
| 20260505193405 | 69 | 225 | 0.0 | 0.0 | 0.00 | 0.00 | 0.00 | 32 | 1005.7 |
| 20260505191858 | 70 | 0 | 0.0 | 0.9 | 0.00 | 0.00 | 0.00 | 31 | 1005.7 |
| 20260505191356 | 70 | 0 | 0.0 | 0.0 | 0.00 | 0.00 | 0.00 | 30 | 1005.6 |
| 20260505190853 | 70 | 0 | 0.0 | 11.3 | 0.00 | 0.00 | 0.00 | 30 | 1005.6 |
| 20260505190351 | 71 | 0 | 0.0 | 0.0 | 0.00 | 0.00 | 0.00 | 30 | 1005.5 |
| 20260505185848 | 71 | 0 | 0.0 | 6.1 | 0.00 | 0.00 | 0.00 | 29 | 1005.5 |
| 20260505185346 | 71 | 0 | 0.0 | 0.0 | 0.00 | 0.00 | 0.00 | 29 | 1005.5 |
| 20260505184844 | 72 | 0 | 0.0 | 0.0 | 0.00 | 0.00 | 0.00 | 28 | 1005.4 |
| 20260505184341 | 73 | 0 | 0.0 | 0.0 | 0.00 | 0.00 | 0.00 | 28 | 1005.4 |
| 20260505183336 | 74 | 0 | 0.0 | 18.2 | 0.00 | 0.00 | 0.00 | 27 | 1005.3 |
| 20260505182834 | 74 | 225 | 0.9 | 17.4 | 0.00 | 0.00 | 0.00 | 26 | 1005.2 |
| 20260505182332 | 75 | 225 | 0.0 | 0.0 | 0.00 | 0.00 | 0.00 | 26 | 1005.2 |
| 20260505181829 | 75 | 225 | 0.0 | 0.0 | 0.00 | 0.00 | 0.00 | 25 | 1005.2 |
| 20260505181327 | 76 | 225 | 0.0 | 0.0 | 0.00 | 0.00 | 0.00 | 25 | 1005.1 |
| 20260505180824 | 76 | 225 | 0.0 | 0.0 | 0.00 | 0.00 | 0.00 | 24 | 1005.2 |
| 20260505180322 | 77 | 225 | 0.0 | 0.0 | 0.00 | 0.00 | 0.00 | 24 | 1005.2 |
| 20260505175819 | 78 | 225 | 0.0 | 0.0 | 0.00 | 0.00 | 0.00 | 23 | 1005.2 |
| 20260505175317 | 79 | 225 | 0.0 | 0.0 | 0.00 | 0.00 | 0.00 | 23 | 1005.2 |
| 20260505174815 | 81 | 225 | 0.0 | 0.0 | 0.00 | 0.00 | 0.00 | 22 | 1005.2 |
| 20260505174312 | 82 | 225 | 0.0 | 0.0 | 0.00 | 0.00 | 0.00 | 22 | 1005.2 |
| 20260505173810 | 84 | 225 | 0.0 | 0.0 | 0.00 | 0.00 | 0.00 | 21 | 1005.2 |
| 20260505173307 | 86 | 225 | 0.0 | 0.0 | 0.00 | 0.00 | 0.00 | 21 | 1005.2 |
| 20260505172805 | 88 | 225 | 0.0 | 0.0 | 0.00 | 0.00 | 0.00 | 21 | 1005.2 |
| 20260505172305 | 88 | 225 | 0.0 | 5.2 | 0.00 | 0.00 | 0.00 | 20 | 1005.2 |
| 20260505171800 | 89 | 225 | 0.0 | 0.9 | 0.00 | 0.00 | 0.00 | 20 | 1005.1 |
| 20260505171258 | 88 | 270 | 0.0 | 0.0 | 0.00 | 0.00 | 0.00 | 20 | 1005.1 |
| 20260505170755 | 87 | 270 | 0.0 | 0.0 | 0.00 | 0.00 | 0.00 | 20 | 1005.1 |
| 20260505170253 | 87 | 270 | 0.0 | 18.2 | 0.00 | 0.00 | 0.00 | 19 | 1005.1 |
| 20260505165751 | 91 | 180 | 0.0 | 15.6 | 0.00 | 0.00 | 0.00 | 18 | 1005.2 |
| 20260505165248 | 95 | 180 | 0.0 | 0.9 | 0.00 | 0.00 | 0.00 | 18 | 1005.2 |
| 20260505164746 | 97 | 270 | 0.0 | 0.0 | 0.00 | 0.00 | 0.00 | 17 | 1005.2 |
| 20260505164243 | 98 | 270 | 0.0 | 0.0 | 0.00 | 0.00 | 0.00 | 18 | 1005.3 |
| 20260505162736 | 97 | 225 | 0.0 | 13.9 | 0.00 | 0.00 | 0.00 | 18 | 1005.4 |
| 20260505162234 | 94 | 270 | 0.0 | 2.6 | 0.00 | 0.00 | 0.00 | 18 | 1005.5 |
| 20260505161731 | 91 | 315 | 0.0 | 0.9 | 0.00 | 0.00 | 0.00 | 19 | 1005.6 |
| 20260505161229 | 89 | 270 | 0.0 | 30.4 | 0.00 | 0.00 | 0.00 | 18 | 1005.6 |
| 20260505160726 | 91 | 270 | 0.0 | 0.9 | 0.00 | 0.00 | 0.00 | 17 | 1005.7 |
| 20260505160224 | 94 | 45 | 0.0 | 0.0 | 0.00 | 0.00 | 0.00 | 17 | 1005.7 |
| 20260505153210 | 90 | 225 | 0.0 | 13.9 | 0.00 | 0.00 | 0.00 | 17 | 1005.6 |
| 20260505152707 | 91 | 180 | 0.0 | 15.6 | 0.00 | 0.00 | 0.00 | 17 | 1005.6 |
| 20260505152205 | 93 | 180 | 0.0 | 5.2 | 0.00 | 0.00 | 0.00 | 17 | 1005.6 |
| 20260505151702 | 94 | 180 | 0.0 | 15.6 | 0.00 | 0.00 | 0.00 | 16 | 1005.6 |
| 20260505151200 | 92 | 180 | 0.0 | 1.7 | 0.00 | 0.00 | 0.00 | 17 | 1005.6 |
| 20260505150657 | 91 | 180 | 0.0 | 7.8 | 0.00 | 0.00 | 0.00 | 16 | 1005.6 |
| 20260505150155 | 93 | 180 | 0.0 | 16.5 | 0.00 | 0.00 | 0.00 | 16 | 1005.6 |
| 20260505140628 | 101 | 270 | 0.0 | 4.3 | 0.00 | 0.00 | 0.00 | 15 | 1005.8 |
| 20260505140126 | 105 | 180 | 0.0 | 11.3 | 0.00 | 0.00 | 0.00 | 15 | 1005.9 |